Temp_Advection
nan nan nan nan nan nan nan nan nan nan nan nan nan nan nan nan nan nan nan nan nan nan nan nan nan nan nan nan nan nan nan nan nan nan nan nan nan nan
nan 0 -0 0 0 -0 0 0 0 1 1 0 0 1 0 -0 0 0 0 -0 0 0 0 0 0 0 0 0 0 1 0 -0 0 0 -0 -0 0 nan
nan -0 0 0 0 0 -0 -0 0 1 1 1 1 1 0 -0 -0 0 0 -0 0 0 0 0 0 0 0 -0 -0 -0 -0 0 0 0 0 0 0 nan
nan 0 0 -0 0 0 -0 -0 0 1 1 1 1 1 1 0 -0 0 0 0 0 0 -0 -0 -0 0 0 0 0 0 -0 -0 -0 0 0 0 0 nan
nan 0 0 0 0 0 -0 -0 0 1 1 1 1 1 0 -0 -0 -0 0 0 0 -0 -0 0 -0 0 0 0 -0 -0 -0 -0 0 0 0 0 0 nan
nan 0 0 0 0 0 -0 0 1 1 1 0 1 0 -0 -0 -0 0 0 0 0 0 -0 -0 -0 0 -0 0 0 0 0 0 0 0 0 0 0 nan
nan 0 0 0 -0 -0 0 1 1 0 0 0 0 0 0 0 0 0 0 -0 -0 -0 -0 -0 0 0 0 0 0 0 0 0 0 0 0 0 0 nan
nan 0 0 0 0 0 1 1 0 0 0 0 0 0 0 0 0 0 0 0 -0 -0 0 0 0 0 0 0 0 0 0 0 0 0 0 0 0 nan
nan 0 0 0 1 0 0 0 0 1 0 0 0 -0 0 0 0 0 0 0 -0 -0 0 0 0 -0 -0 0 0 0 0 0 0 0 0 0 0 nan
nan 0 0 0 0 0 0 0 0 0 0 0 0 0 0 0 0 0 0 0 -0 0 0 0 -0 0 -0 -0 -0 0 0 0 0 0 0 0 0 nan
nan 0 0 0 0 0 0 0 0 0 0 0 0 0 0 0 0 0 0 0 0 0 0 -0 -0 0 0 -0 -0 0 0 -0 0 0 0 0 -0 nan
nan 0 0 -0 -0 0 0 0 0 0 0 0 -0 0 0 0 0 0 0 0 0 -0 0 0 -0 -0 -0 -0 0 -0 -0 -0 0 0 0 -0 -0 nan
nan -0 -0 -0 0 0 0 0 0 0 0 -0 0 0 0 0 0 0 0 0 0 -0 0 0 -0 -0 -0 -0 0 0 -0 -0 0 0 0 -0 -0 nan
nan 0 -0 0 0 0 -0 0 0 0 -0 -0 0 0 0 0 0 0 0 0 0 0 -0 0 0 -0 -0 -0 0 0 0 -0 -0 -0 -0 0 0 nan
nan -0 0 0 0 -0 -0 0 0 0 0 0 0 0 0 0 0 0 -0 -0 0 0 0 0 0 0 0 -0 -0 -0 -0 -0 0 0 -0 -0 -0 nan
nan 0 0 -0 -0 -0 0 0 0 0 0 0 0 0 0 0 0 -0 -0 0 0 0 0 0 0 0 0 0 -0 -0 -0 -0 -0 -0 -0 -0 -0 nan
nan -0 -0 -0 -0 0 0 0 -0 -0 -0 0 0 0 0 0 0 -0 0 0 0 0 0 0 0 0 0 0 0 0 0 0 -0 -0 -0 -1 -0 nan
nan -0 -0 -0 0 0 -0 -0 -0 -0 0 0 0 0 0 0 0 -0 0 0 0 0 0 0 0 -0 -1 0 0 -0 0 0 0 -0 -0 -1 -1 nan
nan -0 -0 0 0 -0 -0 -0 -0 0 0 0 0 0 0 0 0 0 0 -0 0 0 0 0 0 0 -0 -1 0 0 -0 0 -0 -0 0 -0 -1 nan
nan -0 0 -0 -0 -0 -0 -0 0 0 0 0 0 0 0 0 0 0 0 0 0 0 0 0 0 0 -0 -1 -1 0 1 0 -0 -1 -0 -0 -1 nan
nan -0 0 -0 0 0 0 0 0 0 0 0 0 0 0 0 0 0 0 0 0 -0 0 1 1 1 0 -0 -2 -1 1 1 1 0 0 -1 -2 nan
nan -0 0 0 0 0 0 0 0 -0 0 0 0 0 0 0 0 0 0 1 1 0 0 0 1 1 0 -1 -1 -1 -1 0 1 1 1 0 -0 nan
nan nan nan nan nan nan nan nan nan nan nan nan nan nan nan nan nan nan nan nan nan nan nan nan nan nan nan nan nan nan nan nan nan nan nan nan nan nan
Wind_Speed
26 25 25 25 23 23 20 19 18 17 15 20 22 22 18 16 15 15 13 10 10 11 10 12 12 12 13 16 18 18 20 22 21 20 19 16 16 15
24 24 23 27 23 20 21 21 19 19 19 19 22 19 17 18 16 14 13 11 12 12 13 14 12 13 16 19 19 21 20 18 19 16 14 16 16 16
21 22 24 24 24 20 22 21 20 22 21 21 21 20 19 17 13 9 11 12 11 12 11 11 11 10 13 13 15 17 17 16 15 16 17 16 16 16
20 22 24 27 22 20 22 21 23 21 19 19 20 18 17 14 11 9 12 13 10 10 10 10 11 12 13 13 14 15 16 16 17 16 16 15 14 14
18 19 20 23 20 20 24 20 18 16 16 16 17 16 13 13 10 9 10 8 7 8 10 10 11 11 12 12 13 14 15 15 16 16 15 12 9 7
19 20 20 22 21 22 20 17 15 15 15 14 13 12 12 11 10 9 10 8 7 9 9 9 11 11 11 12 13 13 13 13 12 10 9 8 8 8
20 21 21 21 20 19 16 15 14 13 13 12 11 10 10 11 11 10 11 10 9 10 10 10 10 9 10 10 9 7 7 7 7 8 9 9 9 9
18 18 20 19 18 17 14 13 12 13 13 12 11 11 11 11 11 11 11 11 10 9 7 7 7 6 5 4 3 4 6 8 9 10 11 11 12 13
17 17 15 13 13 12 13 14 14 15 14 13 12 12 11 11 10 11 10 10 12 6 6 5 4 4 4 5 5 7 9 10 11 13 13 13 15 14
15 14 13 13 12 13 12 13 13 12 13 12 12 11 10 10 10 10 10 9 8 6 5 5 5 5 7 9 9 10 11 10 11 12 13 13 12 10
13 13 13 13 13 13 12 12 12 12 12 11 10 11 10 10 10 9 9 8 8 6 5 7 7 6 9 11 12 10 10 9 9 8 9 10 12 15
15 13 13 12 12 12 12 13 11 11 10 10 9 9 9 9 8 8 7 8 7 6 6 7 7 8 6 8 7 6 10 11 12 12 15 18 18 18
13 13 14 11 11 11 12 12 11 10 10 9 9 9 9 9 7 7 7 7 7 10 11 10 11 11 9 12 11 11 11 10 11 12 15 18 19 19
13 13 12 10 11 11 11 11 10 9 10 10 10 9 8 8 7 7 8 9 9 11 13 12 13 13 14 14 13 10 9 12 14 14 16 19 20 18
14 13 11 11 10 10 10 10 11 11 11 10 9 8 8 7 8 9 9 10 11 11 12 13 13 13 14 15 16 15 15 12 12 8 11 17 19 19
14 13 12 11 11 11 11 11 11 12 11 10 10 9 8 9 9 10 11 12 11 11 12 12 12 14 15 16 18 17 16 15 15 15 16 17 18 16
12 12 12 12 12 11 12 12 13 13 12 11 11 9 10 10 11 12 12 13 12 12 11 12 12 14 16 17 20 17 15 15 13 16 16 18 19 18
13 12 13 13 13 13 13 13 13 13 12 12 12 12 12 12 12 13 13 13 13 13 12 12 13 15 17 18 17 15 14 14 13 13 18 22 21 19
17 15 15 15 14 14 14 14 13 13 14 14 13 13 14 14 14 14 14 14 15 15 14 13 14 15 17 20 20 16 16 14 17 18 17 19 24 23
21 18 17 16 15 15 15 14 14 15 16 15 15 15 15 15 16 15 14 16 15 16 16 14 14 15 17 19 21 19 17 20 21 23 20 19 21 22
21 19 17 17 17 16 15 16 16 17 17 18 17 17 17 17 17 16 15 16 17 17 17 15 14 16 16 18 23 22 20 19 20 22 23 24 23 23
23 22 20 19 18 18 18 19 19 19 20 20 19 19 19 19 18 17 18 17 17 18 19 17 16 17 18 21 24 24 21 18 16 17 18 20 21 23
26 23 22 21 20 21 21 22 22 22 22 22 21 21 21 21 19 18 20 19 19 19 19 18 17 19 20 21 23 25 24 23 21 19 16 14 16 19
Wind_Direction
258 256 262 259 255 246 242 260 254 258 264 272 272 273 278 279 276 278 277 267 262 256 252 262 261 259 256 261 271 277 283 284 286 290 292 290 291 293
252 256 256 261 252 249 260 257 258 266 259 260 262 266 270 274 273 272 262 259 259 257 251 255 259 259 263 265 269 272 279 282 288 289 285 287 283 279
249 249 257 257 248 252 256 262 265 270 260 250 252 264 272 273 279 255 260 256 255 256 260 262 266 264 277 276 277 278 279 279 283 286 284 280 277 278
247 246 250 249 259 248 256 265 273 266 254 247 251 256 261 265 260 252 253 257 260 264 260 265 268 271 271 274 277 277 278 279 280 280 280 280 281 284
245 242 250 251 244 252 272 272 261 251 249 247 251 252 242 247 250 254 253 257 264 264 269 269 271 272 274 274 274 274 275 278 279 282 284 283 281 277
245 252 256 255 257 260 262 257 249 242 240 239 239 231 231 242 241 242 250 260 261 265 270 273 271 269 270 270 272 272 274 275 277 276 274 271 272 277
248 248 250 251 252 252 251 242 233 227 229 226 227 221 224 231 238 244 251 260 262 267 274 272 270 271 269 269 273 274 269 268 268 267 270 274 277 278
248 247 246 251 250 246 236 229 226 221 226 229 232 230 233 236 238 242 247 255 263 271 273 281 278 274 271 277 277 276 273 274 275 275 275 278 282 284
245 243 242 236 230 224 223 217 221 226 226 234 232 236 237 240 243 244 246 250 257 261 275 274 254 267 276 286 286 285 287 284 280 277 278 277 279 281
238 230 223 221 214 215 216 218 228 227 228 231 234 242 243 243 243 242 240 239 243 245 249 263 265 271 284 290 293 291 289 288 282 279 274 274 274 271
227 219 215 211 211 213 218 232 219 225 226 227 224 230 235 235 233 234 229 225 229 240 248 270 277 276 282 282 286 286 291 290 286 274 263 270 280 282
221 220 221 213 218 224 221 229 222 220 221 217 219 223 222 223 222 216 222 231 246 267 261 269 281 298 288 283 280 289 289 285 282 276 272 282 287 287
219 221 229 219 225 228 228 226 222 215 215 215 213 211 209 215 216 219 228 239 253 266 272 282 290 294 285 286 295 288 286 282 281 283 282 284 286 287
228 228 229 233 229 229 228 221 224 213 215 215 213 211 213 219 221 235 247 256 259 266 279 284 286 295 299 298 301 294 295 289 289 287 284 285 287 287
237 237 237 236 232 232 227 219 222 217 217 218 221 224 228 230 236 253 264 270 271 272 272 277 283 284 289 293 296 301 307 302 297 290 286 285 289 290
240 238 237 235 231 226 223 220 218 218 221 226 231 234 239 249 260 269 274 273 271 269 272 274 275 279 282 289 290 299 309 306 302 301 296 294 294 295
238 234 233 233 232 228 225 225 223 225 228 235 243 245 247 254 261 270 276 280 282 280 276 275 276 277 280 284 288 301 306 302 303 302 303 307 306 309
243 240 238 238 236 234 232 233 231 234 237 243 248 253 257 262 267 276 282 285 287 289 289 283 280 283 286 287 291 300 298 303 298 299 309 309 304 306
249 247 246 244 241 240 240 240 242 244 242 244 248 253 258 264 268 277 284 290 293 295 294 292 289 287 287 290 297 298 299 298 303 300 296 297 299 303
252 251 250 250 248 246 247 249 248 245 248 252 255 257 259 262 266 273 281 288 292 294 295 297 297 295 283 292 291 296 295 301 300 299 299 296 294 297
259 259 255 253 252 251 250 251 252 253 255 253 254 256 258 261 267 271 276 282 286 289 292 296 298 290 288 287 288 302 304 300 296 297 303 303 305 304
259 260 259 257 255 253 253 253 253 254 256 258 257 258 259 261 265 269 274 277 280 284 289 292 289 287 284 283 289 295 301 301 294 284 284 289 294 290
264 264 263 261 257 255 254 254 255 256 257 259 260 258 258 260 264 268 273 274 279 282 284 286 287 285 286 286 290 296 302 305 305 301 295 296 288 287
Height
1541 1541 1542 1543 1543 1545 1546 1547 1547 1548 1548 1548 1548 1548 1547 1545 1543 1545 1544 1546 1547 1548 1547 1548 1548 1548 1549 1550 1550 1550 1550 1550 1550 1549 1549 1548 1547 1547
1533 1535 1536 1537 1538 1538 1541 1541 1541 1541 1542 1542 1543 1543 1543 1542 1540 1541 1543 1541 1543 1543 1544 1544 1545 1545 1545 1546 1546 1546 1545 1545 1545 1544 1544 1544 1544 1543
1528 1529 1530 1531 1533 1532 1534 1536 1536 1536 1535 1536 1537 1538 1538 1538 1537 1536 1540 1538 1539 1539 1540 1541 1541 1541 1542 1541 1541 1541 1541 1541 1541 1541 1541 1541 1540 1540
1523 1524 1526 1528 1528 1528 1529 1530 1529 1530 1529 1530 1532 1532 1534 1535 1533 1533 1536 1535 1535 1536 1536 1537 1538 1537 1538 1537 1537 1537 1537 1537 1537 1537 1537 1537 1537 1537
1518 1519 1520 1522 1522 1523 1524 1524 1524 1524 1524 1524 1526 1527 1528 1531 1530 1530 1533 1532 1532 1533 1534 1534 1534 1534 1534 1534 1533 1533 1533 1533 1533 1533 1533 1533 1534 1534
1513 1516 1515 1517 1517 1518 1518 1519 1520 1520 1519 1520 1522 1523 1524 1527 1528 1528 1530 1529 1530 1530 1530 1530 1531 1530 1530 1530 1530 1529 1529 1529 1530 1530 1531 1531 1532 1532
1508 1509 1511 1512 1512 1513 1513 1513 1515 1515 1516 1516 1519 1519 1521 1523 1524 1525 1525 1525 1527 1527 1527 1527 1527 1527 1527 1526 1526 1526 1526 1527 1527 1528 1528 1529 1529 1529
1502 1504 1506 1506 1507 1507 1509 1510 1513 1513 1512 1512 1515 1515 1517 1519 1520 1522 1523 1523 1524 1524 1524 1524 1524 1523 1523 1523 1523 1524 1524 1524 1525 1526 1526 1526 1526 1526
1498 1499 1501 1500 1503 1504 1506 1507 1509 1511 1511 1511 1511 1512 1514 1515 1517 1519 1519 1520 1520 1521 1520 1520 1521 1521 1521 1520 1521 1521 1521 1522 1522 1522 1523 1523 1523 1522
1496 1496 1496 1497 1498 1501 1504 1505 1508 1507 1507 1508 1509 1510 1512 1513 1514 1515 1516 1517 1517 1517 1518 1518 1519 1519 1518 1518 1518 1518 1518 1518 1518 1518 1518 1518 1519 1519
1493 1493 1493 1495 1496 1498 1500 1506 1503 1505 1506 1505 1507 1507 1509 1510 1511 1512 1513 1514 1514 1515 1516 1516 1516 1516 1516 1515 1514 1514 1514 1514 1514 1514 1514 1515 1515 1515
1490 1490 1493 1493 1494 1496 1498 1501 1500 1502 1504 1504 1504 1505 1507 1508 1508 1510 1511 1512 1513 1513 1513 1514 1514 1514 1513 1511 1512 1512 1512 1511 1511 1511 1511 1510 1510 1509
1488 1489 1491 1490 1491 1493 1495 1497 1497 1500 1501 1502 1502 1503 1504 1506 1507 1508 1510 1510 1510 1510 1511 1511 1510 1510 1510 1509 1509 1508 1508 1507 1507 1506 1506 1505 1505 1504
1486 1488 1487 1487 1490 1491 1492 1493 1495 1497 1499 1500 1501 1501 1502 1504 1505 1506 1507 1508 1508 1508 1507 1507 1507 1506 1505 1504 1505 1505 1505 1504 1503 1502 1501 1500 1499 1498
1484 1484 1484 1486 1487 1488 1489 1490 1493 1494 1496 1498 1498 1499 1500 1501 1503 1503 1504 1504 1504 1504 1503 1503 1503 1502 1502 1501 1500 1500 1500 1500 1498 1498 1497 1495 1494 1493
1480 1480 1481 1483 1484 1485 1486 1488 1491 1492 1494 1495 1496 1497 1497 1499 1500 1500 1501 1500 1500 1500 1500 1499 1499 1499 1498 1497 1496 1495 1496 1495 1495 1493 1491 1490 1489 1488
1477 1477 1478 1479 1481 1482 1484 1486 1488 1489 1491 1492 1493 1494 1495 1496 1497 1497 1497 1496 1496 1496 1496 1495 1495 1494 1493 1493 1491 1491 1491 1490 1490 1488 1486 1484 1484 1482
1473 1473 1475 1476 1478 1480 1481 1483 1484 1486 1487 1488 1490 1491 1492 1492 1493 1492 1492 1491 1491 1491 1491 1491 1490 1489 1489 1488 1487 1486 1486 1485 1485 1484 1482 1479 1477 1477
1467 1470 1471 1473 1475 1476 1478 1479 1481 1482 1483 1484 1486 1487 1488 1488 1488 1488 1488 1487 1486 1486 1485 1485 1485 1485 1484 1482 1481 1482 1480 1480 1479 1478 1477 1475 1471 1469
1464 1466 1467 1469 1471 1472 1474 1475 1477 1478 1479 1480 1481 1482 1483 1484 1484 1484 1484 1483 1483 1482 1481 1481 1481 1480 1479 1479 1476 1476 1476 1475 1473 1471 1470 1469 1466 1463
1460 1461 1463 1464 1466 1468 1469 1471 1472 1473 1474 1475 1476 1477 1478 1478 1478 1479 1479 1478 1478 1477 1477 1477 1477 1476 1474 1473 1470 1469 1470 1469 1467 1464 1462 1461 1459 1456
1454 1456 1458 1459 1461 1462 1464 1465 1466 1467 1468 1469 1471 1472 1472 1473 1473 1473 1473 1473 1473 1472 1472 1472 1472 1471 1469 1468 1466 1464 1463 1463 1462 1461 1459 1458 1455 1450
1448 1450 1452 1453 1455 1456 1457 1458 1459 1461 1462 1463 1464 1465 1466 1466 1467 1467 1467 1467 1467 1466 1466 1466 1466 1465 1463 1462 1460 1457 1456 1455 1454 1453 1452 1452 1450 1447